P/2019 A3 ( PanSTARRS )

Japanese version
Home page
Updated on May 20, 2019

---------------------------------------------------------------------

* Profile

Discovery Date January 3, 2019
Magnitude 21.9 mag
Discoverer Pan-STARRS 1 telescope (Haleakala)

* Orbital Elements

Epoch 2018 July 21.0 TT = JDT 2458320.5
T 2018 Aug. 1.80138 TT                                  MPCW
q   2.3134133            (2000.0)            P               Q
n   0.17656776     Peri.  325.47279     +0.98790903     +0.07103085
a   3.1467466      Node    31.33339     +0.02451113     +0.80612997
e   0.2648238      Incl.   15.36707     -0.15308479     +0.58745986
P   5.58
From 36 observations 2018 Aug. 8-2019 Jan. 24, mean residual 0".3.

* Magnitudes Graph

        m1 = 17.0 + 5 log d + 10.0 log r

---------------------------------------------------------------------

The orbital elements are published on M.P.E.C. 2019-J142.
The magnitudes graphs are made with Comet for Windows.

---------------------------------------------------------------------

Copyright(C) Seiichi Yoshida (comet@aerith.net). All rights reserved.